Regional Weather Roundup
Issued by NWS Newport/Morehead, NC

Current Version | Previous Version | Graphics & Text | Print | Product List | Glossary On
Versions: 1 2 3 4 5 6 7 8 9 10 11 12 13 14 15 16 17 18 19 20 21 22 23 24 25 26 27 28 29 30 31 32 33 34 35 36 37 38 39 40 41 42 43 44 45 46 47 48 49 50
646 ASUS42 KMHX 231425 RWRMHX WEATHER ROUNDUP FOR EASTERN NORTH CAROLINA NATIONAL WEATHER SERVICE NEWPORT/MOREHEAD CITY NC 1000 AM EDT SUN JUL 23 2017 NOTE: "FAIR" INDICATES FEW OR NO CLOUDS BELOW 12,000 FEET WITH NO SIGNIFICANT WEATHER AND/OR OBSTRUCTIONS TO VISIBILITY NCZ015>017-031-032-045>047-102-103-231500- NORTH COAST CITY SKY/WX TMP DP RH WIND PRES REMARKS EDENTON MOSUNNY 86 77 74 W10G16 29.86F ELIZABETH CITY MOSUNNY 85 79 82 SW15G23 29.84S KITTY HAWK PTSUNNY 80 75 85 SW8 29.85R MANTEO MOSUNNY 87 76 71 W16 29.86R $$ NCZ045>047-081-094-103-104-231500- CENTRAL COAST CITY SKY/WX TMP DP RH WIND PRES REMARKS FRISCO SUNNY 82 75 79 SW15G22 29.90R $$ NCZ095-097-098-100-101-231500- SOUTHERN COAST CITY SKY/WX TMP DP RH WIND PRES REMARKS BEAUFORT SUNNY 85 79 82 SW20G25 29.92S CEDAR ISLAND NOT AVBL JACKSONVILLE SUNNY 87 78 74 SW14G21 29.91S HX 100 PINEY ISLAND SUNNY N/A N/A N/A SW21G29 29.90S WILMINGTON SUNNY 86 77 74 S16G22 29.93S $$ NCZ011>013-027>030-043-044-078>080-089-090>093-098-231500- COASTAL PLAIN CITY SKY/WX TMP DP RH WIND PRES REMARKS AHOSKIE N/A 86 78 77 CALM 29.86R CLINTON SUNNY 85 78 77 SW6 29.92R ELIZABETHTOWN NOT AVBL GOLDSBORO NOT AVBL GREENVILLE SUNNY 86 77 74 SW12 29.90S HAVELOCK SUNNY 87 77 72 SW14 29.91S KENANSVILLE MOSUNNY 88 75 66 W12 29.91S KINSTON MOSUNNY 86 75 70 SW9 29.90R NEW BERN SUNNY 87 77 72 SW10G18 29.91R RICHLANDS SUNNY 88 78 72 SW12 29.92R HX 101 ROCKY MOUNT SUNNY 87 77 72 W12 29.88R WASHINGTON SUNNY 84 75 74 SW13 29.88S WHITEVILLE SUNNY 86 76 71 SW10 29.93S $$ AMZ130-135-150-152-154-156-158-170-250-252-270-ANZ085-086-088-633-658-670-231500- MARINE OBSERVATIONS STATION/POSITION TIME TEMP WIND PRES WAVE SWELL AIR SEA DIR/SP/G HT/PER HT/PER (UTC) (F) (DEG/KT/KT) (MB) (FT/S) (FT/S) CHESAPEAKE LIGHT NOT AVBL 64 E VA BEACH 1350 80 79 240/ 16/ 19 1010.4 5/ 6 2/11 DUCK 1400 83 58 240/ 15/ 22 1010.5 2 E DUCK 1400 61 N/A 2/10 OREGON INLET 1400 83 83 210/ 21/ 24 1010.8 13E OREGON INLT 1348 79 N/A 4/ 6 2/10 HATTERAS CG 1400 81 76 230/ 14/ 21 1012.3 DIAMOND BUOY 1350 84 85 230/ 25/ 29 1011.8 6/ 7 2/ 9 CAPE LOOKOUT 1400 83 210/ 14/ 19 1012.7 BEAUFORT LAB 1400 84 78 220/ 7/ 14 1012.5 30 SE NEW RVR IN 1408 82 81 240/ 17/ 21 1013.7 30 SE NEW RVR IN 1343 81 N/A 6/ 6 27 SE WRIGHTSVLE 1408 82 82 220/ 17/ 23 1013.7 5 SE WRIGHTSVLE 1408 81 79 220/ 10/ 17 1013.7 225 S CAPE HAT 1350 83 83 230/ 16/ 19 1017.0 5/ 5 2/10 41 SE CHARLESTON 1410 82 83 230/ 17/ 21 1015.0 $$

USA.gov is the U.S. government's official web portal to all federal, state and local government web resources and services.